Powrót do katalogu

COSMOS 2251 DEB

AktywnyLEO
NORAD 35703·DEBRIS·🇷🇺 Russia

Wystrzelony Jun 16, 1993 z Plesetsk Cosmodrome

Loading…

Następne Przeloty (najbliższe 24 godziny)

TLE

Starzejące sięSource: Space-Track

Epoka: Sep 12, 2026, 04:06 UTC

1 35703U 93036APY 26255.17088995  .00003647  00000-0  33193-3 0  9998
2 35703  74.0392 213.5735 0063338 212.8560 146.8681 14.94060658706952

Śledź COSMOS 2251 DEB w czasie rzeczywistym z AllMySat

Download on the App Store